DW1133 Weather Reports


Display with metric or nautical units.
time (UTC)temp
F
wind
direction
speed
MPH
gust
MPH
rain 1hr
in
rain 24hr
in
rain mn
in
humidity
%
barometer
mb
20210620121341 72 223 0.0 1.0 0.00 0.00 0.00 70 1003.0
20210620120840 72 221 0.0 2.0 0.00 0.00 0.00 69 1003.1
20210620120337 71 222 0.0 2.0 0.00 0.00 0.00 69 1003.0
20210620115822 71 10 0.0 2.0 0.00 0.00 0.00 70 1003.0
20210620115316 71 48 0.0 0.0 0.00 0.00 0.00 69 1003.0
20210620114812 71 49 0.0 1.0 0.00 0.00 0.00 71 1003.0
20210620114306 71 49 0.0 1.0 0.00 0.00 0.00 71 1003.0
20210620113802 71 11 0.0 0.0 0.00 0.00 0.00 71 1003.0
20210620113254 70 5 0.0 0.0 0.00 0.00 0.00 73 1002.9
20210620112745 70 5 0.0 0.0 0.00 0.00 0.00 77 1002.8
20210620112245 69 5 0.0 0.0 0.00 0.00 0.00 78 1002.8
20210620111736 69 5 0.0 0.0 0.00 0.00 0.00 79 1002.7
20210620111205 69 5 0.0 0.0 0.00 0.00 0.00 79 1002.6
20210620110659 69 0 0.0 0.0 0.00 0.00 0.00 79 1002.5
20210620110153 68 5 0.0 0.0 0.00 0.00 0.00 78 1002.5
20210620105643 68 0 0.0 0.0 0.00 0.00 0.00 79 1002.6
20210620105143 68 5 0.0 0.0 0.00 0.00 0.00 78 1002.5
20210620104637 68 5 0.0 0.0 0.00 0.00 0.00 77 1002.5
20210620104132 68 0 0.0 0.0 0.00 0.00 0.00 76 1002.5
20210620103630 68 5 0.0 0.0 0.00 0.00 0.00 76 1002.4
20210620103129 68 5 0.0 0.0 0.00 0.00 0.00 75 1002.4
20210620102631 68 0 0.0 0.0 0.00 0.00 0.00 75 1002.4
20210620102130 68 5 0.0 0.0 0.00 0.00 0.00 74 1002.4
20210620101630 68 5 0.0 0.0 0.00 0.00 0.00 73 1002.3
20210620101129 69 5 0.0 0.0 0.00 0.00 0.00 73 1002.2
20210620100630 69 5 0.0 0.0 0.00 0.00 0.00 72 1002.1
20210620100126 69 0 0.0 0.0 0.00 0.00 0.00 71 1002.1
20210620095614 69 5 0.0 0.0 0.00 0.00 0.00 71 1002.1
20210620095113 69 0 0.0 0.0 0.00 0.00 0.00 69 1002.0
20210620094614 69 0 0.0 0.0 0.00 0.00 0.00 69 1002.1
20210620094113 69 0 0.0 0.0 0.00 0.00 0.00 69 1002.1
20210620093614 69 5 0.0 0.0 0.00 0.00 0.00 67 1002.1
20210620093112 70 5 0.0 0.0 0.00 0.00 0.00 67 1002.0
20210620092611 70 5 0.0 0.0 0.00 0.00 0.00 67 1002.0
20210620092104 70 0 0.0 0.0 0.00 0.00 0.00 66 1001.8
20210620091603 71 0 0.0 1.0 0.00 0.00 0.00 64 1001.8
20210620091100 71 5 0.0 1.0 0.00 0.00 0.00 64 1001.8
20210620090554 71 350 0.0 2.0 0.00 0.00 0.00 64 1001.8
20210620090053 71 350 0.0 2.0 0.00 0.00 0.00 64 1001.7
20210620085555 71 286 0.0 4.0 0.00 0.00 0.00 64 1001.6
20210620085048 71 287 0.0 4.0 0.00 0.00 0.00 63 1001.5
20210620084551 71 152 0.0 4.0 0.00 0.00 0.00 63 1001.4
20210620084026 71 44 0.0 5.0 0.00 0.00 0.00 63 1001.4
20210620083524 71 38 0.0 5.0 0.00 0.00 0.00 63 1001.3
20210620083021 71 186 0.0 6.0 0.00 0.00 0.00 63 1001.3
20210620082506 71 221 1.0 6.0 0.00 0.00 0.00 63 1001.3
20210620081956 71 234 0.0 5.0 0.00 0.00 0.00 63 1001.2
20210620081450 70 0 0.0 5.0 0.00 0.00 0.00 63 1001.1
20210620080950 70 289 0.0 2.0 0.00 0.00 0.00 64 1001.1
20210620080450 70 211 0.0 4.0 0.00 0.00 0.00 65 1001.1
20210620075948 70 221 0.0 4.0 0.00 0.00 0.00 66 1001.1
20210620075432 70 242 0.0 1.0 0.00 0.00 0.00 64 1001.1
20210620074917 70 242 0.0 2.0 0.00 0.00 0.00 64 1001.0
20210620074401 70 242 0.0 2.0 0.00 0.00 0.00 62 1001.0
20210620073847 70 225 0.0 1.0 0.00 0.00 0.00 62 1001.0
20210620073340 70 228 0.0 0.0 0.00 0.00 0.00 62 1000.9
20210620072816 70 230 0.0 3.0 0.00 0.00 0.00 62 1000.9
20210620072305 71 231 0.0 3.0 0.00 0.00 0.00 61 1000.9
20210620071754 71 214 0.0 0.0 0.00 0.00 0.00 62 1000.8
20210620071248 71 214 0.0 2.0 0.00 0.00 0.00 61 1000.8
20210620070719 71 215 0.0 2.0 0.00 0.00 0.00 61 1000.8
20210620070214 71 243 0.0 1.0 0.00 0.00 0.00 61 1000.7
20210620065704 71 244 0.0 2.0 0.00 0.00 0.00 61 1000.9
20210620065206 71 244 0.0 2.0 0.00 0.00 0.00 60 1000.9
20210620064701 71 193 0.0 0.0 0.00 0.00 0.00 60 1000.8
20210620064142 71 193 0.0 0.0 0.00 0.00 0.00 60 1000.9
20210620063625 71 230 0.0 0.0 0.00 0.00 0.00 60 1000.9
20210620063110 71 234 0.0 0.0 0.00 0.00 0.00 60 1000.9
20210620062609 71 311 0.0 0.0 0.00 0.00 0.00 60 1001.0
20210620062105 71 311 0.0 1.0 0.00 0.00 0.00 60 1001.0
20210620061606 72 321 0.0 2.0 0.00 0.00 0.00 59 1000.8
20210620061053 72 196 0.0 2.0 0.00 0.00 0.00 59 1000.9
20210620060546 72 184 0.0 1.0 0.00 0.00 0.00 58 1001.1
20210620060044 72 179 0.0 1.0 0.00 0.00 0.00 58 1000.9
20210620055538 72 184 0.0 0.0 0.00 0.00 0.00 57 1000.9
20210620055035 72 182 0.0 1.0 0.00 0.00 0.00 57 1000.8
20210620054528 73 183 0.0 1.0 0.00 0.00 0.00 56 1000.8
20210620054018 73 162 0.0 3.0 0.00 0.00 0.00 56 1000.7
20210620053518 73 207 0.0 3.0 0.00 0.00 0.00 56 1000.7
20210620053009 73 211 0.0 2.0 0.00 0.00 0.00 55 1000.7
20210620052507 73 178 0.0 2.0 0.00 0.00 0.00 54 1000.7
20210620052003 73 208 0.0 2.0 0.00 0.00 0.00 55 1000.7
20210620051449 73 173 0.0 2.0 0.00 0.00 0.00 54 1000.7
20210620050915 73 159 0.0 2.0 0.00 0.00 0.00 53 1000.7
20210620050412 73 103 0.0 1.0 0.00 0.00 0.00 54 1000.8
20210620045914 73 156 0.0 0.0 0.00 0.00 0.00 52 1000.7
20210620045406 73 156 0.0 1.0 0.00 0.00 0.00 53 1000.7
20210620044846 73 165 0.0 2.0 0.00 0.00 0.00 52 1000.7
20210620044345 74 136 0.0 5.0 0.00 0.00 0.00 54 1000.7
20210620043835 74 175 0.0 5.0 0.00 0.00 0.00 53 1000.7
20210620043319 74 205 0.0 2.0 0.00 0.00 0.00 52 1000.8
20210620042817 74 202 0.0 2.0 0.00 0.00 0.00 52 1000.9
20210620042314 74 202 0.0 2.0 0.00 0.00 0.00 51 1000.9
20210620041815 74 230 0.0 2.0 0.00 0.00 0.00 51 1001.0
20210620041306 74 222 0.0 2.0 0.00 0.00 0.00 51 1000.9
20210620040809 74 184 0.0 0.0 0.00 0.00 0.00 50 1001.0
20210620040253 74 167 0.0 1.0 0.00 0.00 0.00 51 1001.0
20210620035733 74 163 0.0 2.0 0.00 0.00 0.00 50 1001.0
20210620035233 74 210 0.0 2.0 0.00 0.00 0.00 49 1001.0
20210620034732 74 209 0.0 1.0 0.00 0.00 0.00 49 1000.9
20210620034223 74 198 0.0 1.0 0.00 0.00 0.00 49 1000.9
20210620033720 75 168 0.0 1.0 0.00 0.00 0.00 50 1000.9
20210620033212 75 163 0.0 1.0 0.00 0.00 0.00 49 1000.9
20210620032706 75 179 0.0 0.0 0.00 0.00 0.00 50 1000.9
20210620032148 75 183 0.0 1.0 0.00 0.00 0.00 50 1000.9
20210620031646 75 184 0.0 1.0 0.00 0.00 0.00 49 1000.7
20210620031135 75 214 0.0 1.0 0.00 0.00 0.00 50 1000.7
20210620030636 75 214 0.0 4.0 0.00 0.00 0.00 51 1000.7
20210620030123 75 214 0.0 4.0 0.00 0.00 0.00 50 1000.7
20210620025616 75 173 0.0 1.0 0.00 0.00 0.00 51 1000.7
20210620025108 75 161 0.0 1.0 0.00 0.00 0.00 52 1000.7
20210620024554 75 159 0.0 2.0 0.00 0.00 0.00 52 1000.7
20210620024037 75 189 0.0 2.0 0.00 0.00 0.00 53 1000.7
20210620023524 75 187 0.0 2.0 0.00 0.00 0.00 55 1000.8
20210620023016 75 231 0.0 2.0 0.00 0.00 0.00 53 1000.7
20210620022510 75 202 0.0 1.0 0.00 0.00 0.00 54 1000.6
20210620022001 75 181 0.0 1.0 0.00 0.00 0.00 54 1000.5
20210620021452 75 192 0.0 5.0 0.00 0.00 0.00 56 1000.4
20210620020940 75 192 0.0 5.0 0.00 0.00 0.00 54 1000.4
20210620020428 74 183 0.0 1.0 0.00 0.00 0.00 55 1000.3
20210620015922 75 206 0.0 0.0 0.00 0.00 0.00 57 1000.2
20210620015417 75 206 0.0 0.0 0.00 0.00 0.00 58 1000.2
20210620014902 75 206 0.0 1.0 0.00 0.00 0.00 56 1000.1
20210620014331 75 206 0.0 1.0 0.00 0.00 0.00 55 1000.1
20210620013831 75 207 0.0 4.0 0.00 0.00 0.00 55 1000.2
20210620013315 75 209 0.0 4.0 0.00 0.00 0.00 55 1000.2
20210620012816 75 163 0.0 1.0 0.00 0.00 0.00 58 1000.3
20210620012311 75 162 0.0 0.0 0.00 0.00 0.00 57 1000.2
20210620011810 75 162 0.0 1.0 0.00 0.00 0.00 56 1000.2
20210620011306 75 209 0.0 1.0 0.00 0.00 0.00 55 1000.1
20210620010759 75 209 0.0 1.0 0.00 0.00 0.00 56 1000.1
20210620010245 76 205 0.0 1.0 0.00 0.00 0.00 56 1000.1
20210620005738 75 173 0.0 1.0 0.00 0.00 0.00 55 999.9
20210620005232 75 177 0.0 1.0 0.00 0.00 0.00 57 1000.0
20210620004721 75 178 0.0 0.0 0.00 0.00 0.00 58 1000.1
20210620004214 75 167 0.0 1.0 0.00 0.00 0.00 59 1000.1
20210620003708 75 167 0.0 2.0 0.00 0.00 0.00 58 1000.1
20210620003153 75 182 0.0 0.0 0.00 0.00 0.00 55 1000.2
20210620002641 76 183 0.0 0.0 0.00 0.00 0.00 60 1000.1
20210620002142 76 182 0.0 0.0 0.00 0.00 0.00 61 1000.1
20210620001629 76 183 0.0 0.0 0.00 0.00 0.00 54 1000.2
20210620001125 76 182 0.0 0.0 0.00 0.00 0.00 54 1000.2
20210620000616 76 183 0.0 0.0 0.00 0.00 0.00 54 1000.2
20210620000110 76 183 0.0 0.0 0.00 0.00 0.00 55 1000.3
20210619235606 77 182 0.0 0.0 0.00 0.00 0.00 55 1000.2
20210619235058 77 182 0.0 1.0 0.00 0.00 0.00 55 1000.1
20210619234533 77 165 0.0 0.0 0.00 0.00 0.00 54 1000.0
20210619234024 77 165 0.0 0.0 0.00 0.00 0.00 51 999.7
20210619233522 77 165 0.0 0.0 0.00 0.00 0.00 55 999.6
20210619233016 78 165 0.0 0.0 0.00 0.00 0.00 55 999.6
20210619232514 78 165 0.0 0.0 0.00 0.00 0.00 54 999.5
20210619232014 78 165 0.0 0.0 0.00 0.00 0.00 54 999.5
20210619231500 78 165 0.0 0.0 0.00 0.00 0.00 51 999.6
20210619230957 79 165 0.0 0.0 0.00 0.00 0.00 52 999.6
20210619230440 79 164 0.0 0.0 0.00 0.00 0.00 49 999.4
20210619225940 79 163 0.0 0.0 0.00 0.00 0.00 50 999.5
20210619225438 79 163 0.0 0.0 0.00 0.00 0.00 48 999.5
20210619224920 80 163 0.0 0.0 0.00 0.00 0.00 48 999.6
20210619224412 80 178 0.0 0.0 0.00 0.00 0.00 48 999.7
20210619223910 80 178 0.0 0.0 0.00 0.00 0.00 50 999.6
20210619223406 81 178 0.0 0.0 0.00 0.00 0.00 49 999.7
20210619222854 81 178 0.0 0.0 0.00 0.00 0.00 47 999.7
20210619222347 81 169 0.0 0.0 0.00 0.00 0.00 45 999.6
20210619221829 81 168 0.0 0.0 0.00 0.00 0.00 48 999.5
20210619221330 81 168 0.0 0.0 0.00 0.00 0.00 47 999.6
20210619220824 82 157 0.0 0.0 0.00 0.00 0.00 49 999.6
20210619220314 82 158 0.0 4.0 0.00 0.00 0.00 47 999.5
20210619215810 81 146 0.0 4.0 0.00 0.00 0.00 45 999.4
20210619215309 81 231 0.0 2.0 0.00 0.00 0.00 45 999.3
20210619214808 82 254 0.0 2.0 0.00 0.00 0.00 46 999.3
20210619214303 82 71 0.0 2.0 0.00 0.00 0.00 44 999.3
20210619213754 82 250 0.0 5.0 0.00 0.00 0.00 44 999.2
20210619213220 82 261 0.0 5.0 0.00 0.00 0.00 42 999.2
20210619212721 82 206 0.0 2.0 0.00 0.00 0.00 45 999.3
20210619212212 82 173 0.0 6.0 0.00 0.00 0.00 43 999.3
20210619211713 82 233 1.0 6.0 0.00 0.00 0.00 40 999.4
20210619211136 82 194 1.0 8.0 0.00 0.00 0.00 40 999.3
20210619210623 82 351 1.0 8.0 0.00 0.00 0.00 41 999.3
20210619210113 82 193 1.0 7.0 0.00 0.00 0.00 40 999.4
20210619205551 83 211 1.0 7.0 0.00 0.00 0.00 39 999.4
20210619205040 83 51 1.0 8.0 0.00 0.00 0.00 43 999.3
20210619204530 83 137 1.0 8.0 0.00 0.00 0.00 40 999.3
20210619204008 83 71 0.0 2.0 0.00 0.00 0.00 42 999.3
20210619203505 83 65 0.0 4.0 0.00 0.00 0.00 37 999.3
20210619202957 84 57 0.0 4.0 0.00 0.00 0.00 38 999.3
20210619202457 84 167 0.0 4.0 0.00 0.00 0.00 38 999.3
20210619201924 84 213 1.0 11.0 0.00 0.00 0.00 39 999.3
20210619201423 84 66 2.0 11.0 0.00 0.00 0.00 37 999.4
20210619200918 85 216 1.0 7.0 0.00 0.00 0.00 36 999.4
20210619200416 85 154 1.0 7.0 0.00 0.00 0.00 39 999.3
20210619195917 85 96 1.0 6.0 0.00 0.00 0.00 38 999.4
20210619195419 86 200 1.0 6.0 0.00 0.00 0.00 38 999.4
20210619194916 85 236 1.0 6.0 0.00 0.00 0.00 36 999.4
20210619194415 85 211 1.0 6.0 0.00 0.00 0.00 39 999.3
20210619193917 86 28 1.0 5.0 0.00 0.00 0.00 43 999.2
20210619193403 86 279 1.0 10.0 0.00 0.00 0.00 41 999.3
20210619192859 87 167 1.0 10.0 0.00 0.00 0.00 40 999.3
20210619192318 87 225 1.0 6.0 0.00 0.00 0.00 40 999.4
20210619191816 87 350 1.0 5.0 0.00 0.00 0.00 44 999.4
20210619191317 87 207 1.0 4.0 0.00 0.00 0.00 46 999.6
20210619190817 88 92 1.0 4.0 0.00 0.00 0.00 42 999.7
20210619190314 88 200 0.0 5.0 0.00 0.00 0.00 47 999.9
20210619185813 88 200 1.0 5.0 0.00 0.00 0.00 45 999.8
20210619185312 87 227 1.0 4.0 0.00 0.00 0.00 47 999.8
20210619184813 87 227 1.0 4.0 0.00 0.00 0.00 51 999.8
20210619184310 87 113 1.0 8.0 0.00 0.00 0.00 52 999.9
20210619183808 86 347 1.0 8.0 0.00 0.00 0.00 48 999.9
20210619183309 87 242 1.0 6.0 0.00 0.00 0.00 48 1000.0
20210619182802 87 62 1.0 6.0 0.00 0.00 0.00 50 1000.0
20210619182252 87 81 0.0 6.0 0.00 0.00 0.00 50 999.9
20210619181741 87 302 0.0 4.0 0.00 0.00 0.00 50 999.9
20210619181235 86 210 1.0 5.0 0.00 0.00 0.00 51 999.9
20210619180721 86 178 1.0 7.0 0.00 0.00 0.00 49 999.9
20210619180215 86 82 1.0 7.0 0.00 0.00 0.00 48 999.8
20210619175712 87 214 0.0 5.0 0.00 0.00 0.00 51 999.8
20210619175156 87 198 0.0 5.0 0.00 0.00 0.00 52 1000.0
20210619174650 86 36 1.0 4.0 0.00 0.00 0.00 50 999.9
20210619174127 86 96 1.0 9.0 0.00 0.00 0.00 53 1000.0
20210619173629 85 140 1.0 9.0 0.00 0.00 0.00 48 999.9
20210619173118 86 110 0.0 5.0 0.00 0.00 0.00 50 999.9
20210619172620 86 155 0.0 5.0 0.00 0.00 0.00 50 999.9
20210619172059 86 192 0.0 5.0 0.00 0.00 0.00 52 1000.0
20210619171557 86 213 0.0 5.0 0.00 0.00 0.00 52 999.9
20210619171053 85 171 1.0 5.0 0.00 0.00 0.00 51 999.8
20210619170541 85 343 1.0 5.0 0.00 0.00 0.00 51 999.8
20210619170031 85 207 1.0 5.0 0.00 0.00 0.00 52 999.8
20210619165529 85 19 1.0 6.0 0.00 0.00 0.00 55 999.8
20210619165022 85 333 1.0 6.0 0.00 0.00 0.00 53 999.8
20210619164516 85 246 1.0 6.0 0.00 0.00 0.00 55 999.7
20210619164002 84 41 1.0 6.0 0.00 0.00 0.00 58 999.9
20210619163452 84 210 0.0 6.0 0.00 0.00 0.00 56 1000.1
20210619162941 84 198 1.0 6.0 0.00 0.00 0.00 58 1000.2
20210619162431 83 225 1.0 6.0 0.00 0.00 0.00 60 1000.2
20210619161924 83 168 1.0 8.0 0.00 0.00 0.00 61 1000.1
20210619161412 82 19 1.0 8.0 0.00 0.00 0.00 60 1000.1
20210619160909 82 46 1.0 5.0 0.00 0.00 0.00 59 1000.0
20210619160402 82 203 1.0 5.0 0.00 0.00 0.00 58 1000.1
20210619155903 82 22 0.0 5.0 0.00 0.00 0.00 60 1000.1
20210619155402 82 194 1.0 7.0 0.00 0.00 0.00 60 1000.1
20210619154857 82 243 1.0 7.0 0.00 0.00 0.00 60 1000.0
20210619154353 82 221 0.0 4.0 0.00 0.00 0.00 62 1000.0
20210619153836 82 181 0.0 7.0 0.00 0.00 0.00 62 1000.1
20210619153337 81 171 1.0 7.0 0.00 0.00 0.00 62 1000.2
20210619152838 81 164 1.0 6.0 0.00 0.00 0.00 63 1000.3
20210619152320 81 81 1.0 4.0 0.00 0.00 0.00 63 1000.1
20210619151820 80 169 0.0 4.0 0.00 0.00 0.00 65 1000.3
20210619151311 80 340 0.0 4.0 0.00 0.00 0.00 64 1000.4
20210619150807 80 228 1.0 7.0 0.00 0.00 0.00 66 1000.5
20210619150306 79 287 1.0 7.0 0.00 0.00 0.00 66 1000.5
20210619145807 79 228 1.0 6.0 0.00 0.00 0.00 67 1000.5
20210619145300 79 17 1.0 5.0 0.00 0.00 0.00 66 1000.6
20210619144750 78 178 1.0 7.0 0.00 0.00 0.00 66 1000.3
20210619144228 78 215 1.0 8.0 0.00 0.00 0.00 66 1000.3
20210619143722 78 350 1.0 8.0 0.00 0.00 0.00 67 1000.2
20210619143217 78 177 1.0 7.0 0.00 0.00 0.00 67 1000.3
20210619142718 77 173 0.0 7.0 0.00 0.00 0.00 68 1000.1
20210619142220 77 262 0.0 7.0 0.00 0.00 0.00 71 1000.1
20210619141717 76 200 0.0 0.0 0.00 0.00 0.00 74 1000.3
20210619141216 75 196 0.0 1.0 0.00 0.00 0.00 74 1000.3
20210619140642 75 193 0.0 1.0 0.00 0.00 0.00 75 1000.5
20210619140119 74 222 0.0 1.0 0.00 0.00 0.00 74 1000.5
20210619135619 74 197 0.0 1.0 0.00 0.00 0.00 75 1000.2
20210619135050 74 197 0.0 1.0 0.00 0.00 0.00 75 1000.4
20210619134531 73 169 0.0 2.0 0.00 0.00 0.00 76 1000.4
20210619134028 73 168 0.0 2.0 0.00 0.00 0.00 76 1000.3
20210619133521 73 171 0.0 1.0 0.00 0.00 0.00 77 1000.5
20210619133022 72 202 0.0 5.0 0.00 0.00 0.00 77 1000.5
20210619132518 72 198 0.0 5.0 0.00 0.00 0.00 78 1000.6
20210619132016 71 101 0.0 0.0 0.00 0.00 0.00 79 1000.6
20210619131516 71 184 0.0 0.0 0.00 0.00 0.00 79 1000.6
20210619131015 71 189 0.0 0.0 0.00 0.00 0.00 79 1000.7
20210619130500 71 200 0.0 0.0 0.00 0.00 0.00 79 1000.8
20210619125946 71 201 0.0 0.0 0.00 0.00 0.00 79 1000.8
20210619125438 71 241 0.0 1.0 0.00 0.00 0.00 80 1001.0
20210619124921 71 241 0.0 1.0 0.00 0.00 0.00 79 1000.9
20210619124407 71 232 0.0 0.0 0.00 0.00 0.00 78 1000.9
20210619123856 71 232 0.0 2.0 0.00 0.00 0.00 79 1000.8
20210619123321 70 235 0.0 2.0 0.00 0.00 0.00 79 1000.8
20210619122822 70 196 0.0 0.0 0.00 0.00 0.00 81 1000.8
20210619122320 70 202 0.0 0.0 0.00 0.00 0.00 81 1000.8
20210619121808 70 203 0.0 0.0 0.00 0.00 0.00 79 1000.8